Stevensville, MD

4:14 PM EST on January 20, 2017 (GMT -0500)
Stevensville

Weather History for KW29 - December, 2011

Change the Weather History Date:

Tuesday, December 20, 2011

  Actual Average (KESN) Record (KESN)
Temperature  
Mean Temperature 47 °F -  
Max Temperature 53 °F 50 °F 65 °F (1957)
Min Temperature 41 °F 30 °F 10 °F (1950)
Degree Days  
Heating Degree Days 18    
Moisture  
Dew Point 38 °F    
Average Humidity 68    
Maximum Humidity 93    
Minimum Humidity 54    
Precipitation  
Precipitation 0.00 in - - ()
Sea Level Pressure  
Sea Level Pressure 30.13 in    
Wind  
Wind Speed 4 mph (WSW)    
Max Wind Speed 8 mph    
Max Gust Speed -    
Visibility 10 miles    
Events      
Averages and records for this station are not official NWS values.
T = Trace of Precipitation, MM = Missing Value Source: NWS Daily Summary

Daily Weather History Graph

Daily Weather History Graph

Search for Another Location

Airport or City:

Trip Planner

Search our weather history database for the weather conditions in past years. The results will help you decide how hot, cold, wet, or windy it might be!

Date:

Astronomy

Dec. 20, 2011 Rise Set
Actual Time 7:19 AM EST 4:45 PM EST
Civil Twilight 6:49 AM EST 5:15 PM EST
Nautical Twilight 6:16 AM EST 5:49 PM EST
Astronomical Twilight 5:43 AM EST 6:21 PM EST
Moon 2:39 AM EST 1:19 PM EST
Length of Visible Light 10h 26m
Length of Day
9h 25m
Waning Crescent, 21% of the Moon is Illuminated
Dec 20
Waning Crescent
Dec 24
New
Jan 1
First Quarter
Jan 9
Full
Jan 16
Last Quarter

Hourly Weather History & Observations

Time (EST) Temp. Windchill Dew Point Humidity Pressure Visibility Wind Dir Wind Speed Gust Speed Precip Events Conditions
12:15 AM 50.0 °F - 33.8 °F 54% 30.06 in 10.0 mi WSW 6.9 mph - N/A   Mostly Cloudy
12:34 AM 50.0 °F - 33.8 °F 54% 30.06 in 10.0 mi WSW 6.9 mph - N/A   Mostly Cloudy
12:53 AM 48.2 °F - 37.4 °F 66% 30.06 in 10.0 mi West 4.6 mph - N/A   Mostly Cloudy
1:13 AM 48.2 °F - 33.8 °F 58% 30.06 in 10.0 mi West 5.8 mph - N/A   Scattered Clouds
1:32 AM 48.2 °F - 33.8 °F 58% 30.07 in 10.0 mi West 5.8 mph - N/A   Mostly Cloudy
1:51 AM 48.2 °F - 33.8 °F 58% 30.07 in 10.0 mi West 5.8 mph - N/A   Overcast
2:11 AM 48.2 °F - 35.6 °F 62% 30.08 in 10.0 mi West 5.8 mph - N/A   Mostly Cloudy
2:30 AM 46.4 °F 43.5 °F 35.6 °F 66% 30.10 in 10.0 mi West 5.8 mph - N/A   Overcast
2:49 AM 46.4 °F 44.3 °F 35.6 °F 66% 30.10 in 10.0 mi West 4.6 mph - N/A   Overcast
3:08 AM 46.4 °F 43.5 °F 35.6 °F 66% 30.10 in 10.0 mi West 5.8 mph - N/A   Overcast
3:28 AM 48.2 °F - 32.0 °F 54% 30.09 in 10.0 mi WNW 4.6 mph - N/A   Overcast
3:47 AM 48.2 °F - 32.0 °F 54% 30.08 in 10.0 mi WNW 4.6 mph - N/A   Overcast
4:06 AM 48.2 °F - 33.8 °F 58% 30.08 in 10.0 mi NW 6.9 mph - N/A   Overcast
4:26 AM 50.0 °F - 33.8 °F 54% 30.09 in 10.0 mi WNW 6.9 mph - N/A   Overcast
4:45 AM 50.0 °F - 33.8 °F 54% 30.09 in 10.0 mi WNW 5.8 mph - N/A   Overcast
5:04 AM 50.0 °F - 33.8 °F 54% 30.10 in 10.0 mi WNW 4.6 mph - N/A   Overcast
5:24 AM 50.0 °F - 35.6 °F 58% 30.10 in 10.0 mi WSW 4.6 mph - N/A   Overcast
6:02 AM 50.0 °F - 37.4 °F 62% 30.12 in 10.0 mi West 4.6 mph - N/A   Overcast
6:22 AM 48.2 °F - 37.4 °F 66% 30.13 in 10.0 mi WNW 4.6 mph - N/A   Overcast
6:41 AM 50.0 °F - 37.4 °F 62% 30.13 in 10.0 mi West 3.5 mph - N/A   Overcast
7:00 AM 48.2 °F - 39.2 °F 71% 30.14 in 10.0 mi West 4.6 mph - N/A   Overcast
7:39 AM 46.4 °F 44.3 °F 41.0 °F 81% 30.14 in 10.0 mi West 4.6 mph - N/A   Overcast
7:58 AM 48.2 °F - 39.2 °F 71% 30.15 in 10.0 mi Calm Calm - N/A   Overcast
8:17 AM 48.2 °F - 41.0 °F 76% 30.15 in 10.0 mi West 3.5 mph - N/A   Overcast
8:36 AM 48.2 °F - 41.0 °F 76% 30.16 in 10.0 mi WSW 3.5 mph - N/A   Overcast
8:56 AM 48.2 °F - 39.2 °F 71% 30.16 in 10.0 mi Calm Calm - N/A   Overcast
9:15 AM 48.2 °F - 41.0 °F 76% 30.17 in 10.0 mi Calm Calm - N/A   Overcast
9:34 AM 48.2 °F - 39.2 °F 71% 30.19 in 10.0 mi West 3.5 mph - N/A   Overcast
9:54 AM 50.0 °F - 37.4 °F 62% 30.18 in 10.0 mi Calm Calm - N/A   Overcast
10:51 AM 51.8 °F - 37.4 °F 58% 30.18 in 10.0 mi Calm Calm - N/A   Overcast
11:30 AM 51.8 °F - 37.4 °F 58% 30.16 in 10.0 mi Calm Calm - N/A   Overcast
11:49 AM 51.8 °F - 39.2 °F 62% 30.16 in 10.0 mi Calm Calm - N/A   Overcast
12:47 PM 51.8 °F - 37.4 °F 58% 30.15 in 10.0 mi NNW 3.5 mph - N/A   Overcast
1:06 PM 51.8 °F - 37.4 °F 58% 30.14 in 10.0 mi North 3.5 mph - N/A   Overcast
1:26 PM 51.8 °F - 37.4 °F 58% 30.13 in 10.0 mi Calm Calm - N/A   Overcast
2:04 PM 51.8 °F - 39.2 °F 62% 30.14 in 10.0 mi Calm Calm - N/A   Overcast
2:23 PM 53.6 °F - 37.4 °F 54% 30.12 in 10.0 mi Calm Calm - N/A   Overcast
2:43 PM 53.6 °F - 37.4 °F 54% 30.12 in 10.0 mi Calm Calm - N/A   Scattered Clouds
3:02 PM 51.8 °F - 37.4 °F 58% 30.12 in 10.0 mi ESE 3.5 mph - N/A   Clear
3:21 PM 51.8 °F - 39.2 °F 62% 30.12 in 10.0 mi SE 4.6 mph - N/A   Clear
3:41 PM 51.8 °F - 39.2 °F 62% 30.13 in 10.0 mi Calm Calm - N/A   Clear
4:00 PM 50.0 °F - 39.2 °F 66% 30.13 in 10.0 mi Calm Calm - N/A   Clear
4:19 PM 50.0 °F - 39.2 °F 66% 30.14 in 10.0 mi Calm Calm - N/A   Clear
4:38 PM 50.0 °F - 39.2 °F 66% 30.15 in 10.0 mi Calm Calm - N/A   Clear
4:58 PM 46.4 °F - 39.2 °F 76% 30.15 in 10.0 mi Calm Calm - N/A   Clear
5:17 PM 46.4 °F 45.2 °F 39.2 °F 76% 30.15 in 10.0 mi SE 3.5 mph - N/A   Clear
5:36 PM 44.6 °F - 39.2 °F 81% 30.15 in 10.0 mi Calm Calm - N/A   Clear
5:55 PM 42.8 °F - 37.4 °F 81% 30.16 in 10.0 mi Calm Calm - N/A   Clear
6:15 PM 42.8 °F - 37.4 °F 81% 30.16 in 10.0 mi Calm Calm - N/A   Clear
6:34 PM 42.8 °F 41.1 °F 37.4 °F 81% 30.15 in 10.0 mi SE 3.5 mph - N/A   Clear
6:53 PM 42.8 °F - 39.2 °F 87% 30.16 in 10.0 mi Calm Calm - N/A   Clear
7:13 PM 42.8 °F 41.1 °F 39.2 °F 87% 30.16 in 10.0 mi East 3.5 mph - N/A   Clear
7:32 PM 41.0 °F - 39.2 °F 93% 30.17 in 10.0 mi Calm Calm - N/A   Clear
7:51 PM 42.8 °F 41.1 °F 41.0 °F 93% 30.16 in 10.0 mi East 3.5 mph - N/A   Clear
8:10 PM 42.8 °F 39.3 °F 41.0 °F 93% 30.15 in 10.0 mi ESE 5.8 mph - N/A   Clear
8:30 PM 44.6 °F 43.1 °F 41.0 °F 87% 30.15 in 10.0 mi ESE 3.5 mph - N/A   Clear
8:49 PM 44.6 °F 41.4 °F 41.0 °F 87% 30.15 in 10.0 mi SE 5.8 mph - N/A   Scattered Clouds
9:08 PM 44.6 °F 40.7 °F 39.2 °F 81% 30.15 in 10.0 mi SSE 6.9 mph - N/A   Scattered Clouds
9:27 PM 44.6 °F 40.2 °F 37.4 °F 76% 30.15 in 10.0 mi SSE 8.1 mph - N/A   Scattered Clouds
9:47 PM 44.6 °F 40.7 °F 37.4 °F 76% 30.14 in 10.0 mi SSE 6.9 mph - N/A   Mostly Cloudy
10:06 PM 44.6 °F 40.7 °F 37.4 °F 76% 30.14 in 10.0 mi SSE 6.9 mph - N/A   Overcast
10:25 PM 44.6 °F 40.7 °F 37.4 °F 76% 30.14 in 10.0 mi SSE 6.9 mph - N/A   Overcast
10:45 PM 44.6 °F 41.4 °F 37.4 °F 76% 30.13 in 10.0 mi SE 5.8 mph - N/A   Overcast
11:04 PM 44.6 °F 41.4 °F 37.4 °F 76% 30.12 in 10.0 mi SSE 5.8 mph - N/A   Scattered Clouds
11:23 PM 44.6 °F 40.7 °F 37.4 °F 76% 30.11 in 10.0 mi SSE 6.9 mph - N/A   Scattered Clouds
11:43 PM 44.6 °F 40.7 °F 39.2 °F 81% 30.11 in 10.0 mi SSE 6.9 mph - N/A   Overcast